| time (UTC) | temp F | wind direction | speed MPH | gust MPH | rain 1hr in | rain 24hr in | rain mn in | humidity % | barometer mb |
| 20260507083503 | 51 | 15 | 2.0 | 5.0 | 0.01 | 0.58 | 0.01 | 89 | 1013.6 |
| 20260507083003 | 51 | 25 | 2.0 | 5.0 | 0.01 | 0.58 | 0.01 | 87 | 1013.5 |
| 20260507082717 | 51 | 39 | 2.0 | 5.0 | 0.01 | 0.58 | 0.01 | 88 | 1013.5 |
| 20260507082003 | 51 | 42 | 2.0 | 6.0 | 0.01 | 0.58 | 0.01 | 87 | 1013.5 |
| 20260507081503 | 51 | 32 | 1.0 | 3.0 | 0.01 | 0.58 | 0.01 | 87 | 1013.2 |
| 20260507081003 | 51 | 30 | 2.0 | 5.0 | 0.01 | 0.58 | 0.01 | 87 | 1013.1 |
| 20260507080503 | 51 | 28 | 2.0 | 5.0 | 0.00 | 0.57 | 0.00 | 86 | 1013.3 |
| 20260507080003 | 51 | 25 | 2.0 | 4.0 | 0.00 | 0.57 | 0.00 | 86 | 1013.3 |
| 20260507075503 | 51 | 18 | 1.0 | 4.0 | 0.00 | 0.57 | 0.00 | 86 | 1013.2 |
| 20260507075003 | 51 | 16 | 2.0 | 4.0 | 0.00 | 0.57 | 0.00 | 86 | 1013.1 |
| 20260507074503 | 51 | 22 | 2.0 | 4.0 | 0.00 | 0.57 | 0.00 | 85 | 1013.1 |
| 20260507074003 | 51 | 30 | 2.0 | 5.0 | 0.00 | 0.57 | 0.00 | 85 | 1012.9 |
| 20260507073503 | 51 | 34 | 1.0 | 4.0 | 0.00 | 0.57 | 0.00 | 85 | 1013.1 |
| 20260507073003 | 51 | 22 | 1.0 | 4.0 | 0.00 | 0.57 | 0.00 | 85 | 1012.9 |
| 20260507072717 | 51 | 16 | 1.0 | 3.0 | 0.00 | 0.57 | 0.00 | 85 | 1012.8 |
| 20260507072003 | 51 | 20 | 2.0 | 4.0 | 0.00 | 0.57 | 0.00 | 85 | 1012.9 |
| 20260507071503 | 51 | 30 | 2.0 | 4.0 | 0.00 | 0.57 | 0.00 | 84 | 1012.9 |
| 20260507071003 | 51 | 37 | 2.0 | 4.0 | 0.00 | 0.57 | 0.00 | 84 | 1012.7 |
| 20260507070503 | 51 | 28 | 1.0 | 4.0 | 0.00 | 0.57 | 0.00 | 82 | 1012.9 |
| 20260507070005 | 51 | 11 | 1.0 | 4.0 | 0.00 | 0.57 | 0.00 | 82 | 1012.8 |
| 20260507065503 | 51 | 14 | 1.0 | 4.0 | 0.00 | 0.57 | 0.00 | 83 | 1012.7 |
| 20260507065003 | 50 | 28 | 2.0 | 5.0 | 0.00 | 0.57 | 0.00 | 82 | 1012.7 |
| 20260507064503 | 50 | 29 | 2.0 | 5.0 | 0.00 | 0.57 | 0.00 | 83 | 1012.7 |
| 20260507064003 | 50 | 33 | 2.0 | 9.0 | 0.00 | 0.57 | 0.00 | 83 | 1012.5 |
| 20260507063503 | 50 | 32 | 2.0 | 9.0 | 0.00 | 0.57 | 0.00 | 83 | 1012.7 |
| 20260507063218 | 50 | 25 | 2.0 | 5.0 | 0.00 | 0.57 | 0.00 | 83 | 1012.5 |
| 20260507062503 | 50 | 31 | 2.0 | 6.0 | 0.00 | 0.57 | 0.00 | 84 | 1012.6 |
| 20260507062003 | 50 | 43 | 2.0 | 8.0 | 0.00 | 0.57 | 0.00 | 84 | 1012.5 |
| 20260507061503 | 50 | 43 | 1.0 | 4.0 | 0.00 | 0.57 | 0.00 | 85 | 1012.5 |
| 20260507061003 | 50 | 26 | 2.0 | 4.0 | 0.00 | 0.57 | 0.00 | 84 | 1012.7 |
| 20260507060503 | 50 | 32 | 2.0 | 5.0 | 0.00 | 0.57 | 0.00 | 84 | 1012.5 |
| 20260507060218 | 50 | 33 | 2.0 | 6.0 | 0.00 | 0.57 | 0.00 | 85 | 1012.4 |
| 20260507055503 | 50 | 18 | 1.0 | 4.0 | 0.00 | 0.57 | 0.00 | 85 | 1012.4 |
| 20260507055003 | 49 | 22 | 2.0 | 3.0 | 0.00 | 0.57 | 0.00 | 85 | 1012.4 |
| 20260507054503 | 49 | 44 | 1.0 | 3.0 | 0.00 | 0.57 | 0.00 | 86 | 1012.1 |
| 20260507054003 | 49 | 31 | 1.0 | 3.0 | 0.00 | 0.57 | 0.00 | 86 | 1012.0 |
| 20260507053503 | 49 | 7 | 1.0 | 4.0 | 0.00 | 0.57 | 0.00 | 86 | 1012.0 |
| 20260507053003 | 49 | 5 | 1.0 | 3.0 | 0.00 | 0.57 | 0.00 | 87 | 1012.0 |
| 20260507052716 | 49 | 8 | 1.0 | 3.0 | 0.00 | 0.57 | 0.00 | 88 | 1012.0 |
| 20260507052003 | 49 | 23 | 1.0 | 3.0 | 0.00 | 0.57 | 0.00 | 88 | 1011.7 |
| 20260507051503 | 49 | 33 | 2.0 | 6.0 | 0.00 | 0.57 | 0.00 | 88 | 1011.8 |
| 20260507051003 | 49 | 27 | 2.0 | 4.0 | 0.00 | 0.57 | 0.00 | 88 | 1011.8 |
| 20260507050503 | 48 | 27 | 2.0 | 4.0 | 0.00 | 0.57 | 0.00 | 88 | 1011.7 |
| 20260507050003 | 48 | 48 | 1.0 | 4.0 | 0.00 | 0.57 | 0.00 | 88 | 1011.7 |
| 20260507045503 | 48 | 57 | 2.0 | 3.0 | 0.00 | 0.57 | 0.00 | 88 | 1011.5 |
| 20260507045217 | 48 | 53 | 2.0 | 4.0 | 0.00 | 0.57 | 0.00 | 88 | 1011.4 |
| 20260507044503 | 48 | 39 | 2.0 | 3.0 | 0.00 | 0.57 | 0.00 | 88 | 1011.4 |
| 20260507044003 | 48 | 39 | 2.0 | 4.0 | 0.00 | 0.57 | 0.00 | 88 | 1011.5 |
| 20260507043503 | 48 | 46 | 2.0 | 2.0 | 0.00 | 0.57 | 0.00 | 88 | 1011.4 |
| 20260507043217 | 48 | 49 | 2.0 | 3.0 | 0.00 | 0.57 | 0.00 | 88 | 1011.5 |
| 20260507042503 | 48 | 49 | 2.0 | 4.0 | 0.00 | 0.57 | 0.00 | 87 | 1011.4 |
| 20260507042003 | 48 | 52 | 2.0 | 5.0 | 0.00 | 0.57 | 0.00 | 87 | 1011.2 |
| 20260507041503 | 48 | 37 | 1.0 | 3.0 | 0.00 | 0.57 | 0.00 | 88 | 1011.1 |
| 20260507041003 | 48 | 37 | 1.0 | 4.0 | 0.00 | 0.57 | 0.00 | 88 | 1011.0 |
| 20260507040503 | 48 | 49 | 2.0 | 4.0 | 0.00 | 0.57 | 0.00 | 88 | 1011.1 |
| 20260507040003 | 48 | 41 | 2.0 | 4.0 | 0.00 | 0.57 | 0.00 | 88 | 1011.1 |
| 20260507035503 | 48 | 30 | 1.0 | 3.0 | 0.00 | 0.57 | 0.00 | 88 | 1011.1 |
| 20260507035003 | 48 | 33 | 1.0 | 2.0 | 0.00 | 0.57 | 0.00 | 88 | 1010.9 |
| 20260507034503 | 48 | 36 | 2.0 | 5.0 | 0.00 | 0.57 | 0.00 | 88 | 1010.9 |
| 20260507034003 | 48 | 37 | 1.0 | 6.0 | 0.00 | 0.57 | 0.00 | 88 | 1011.1 |
| 20260507033503 | 48 | 27 | 1.0 | 2.0 | 0.00 | 0.57 | 0.00 | 89 | 1011.0 |
| 20260507033003 | 48 | 22 | 1.0 | 4.0 | 0.00 | 0.57 | 0.00 | 89 | 1010.8 |
| 20260507032718 | 48 | 24 | 1.0 | 3.0 | 0.00 | 0.57 | 0.00 | 89 | 1010.9 |
| 20260507032217 | 48 | 11 | 1.0 | 3.0 | 0.00 | 0.57 | 0.00 | 89 | 1010.9 |
| 20260507031503 | 48 | 325 | 1.0 | 4.0 | 0.00 | 0.57 | 0.00 | 90 | 1010.9 |
| 20260507031003 | 48 | 319 | 0.0 | 2.0 | 0.00 | 0.57 | 0.00 | 90 | 1010.9 |
| 20260507030503 | 48 | 322 | 0.0 | 2.0 | 0.00 | 0.57 | 0.00 | 90 | 1010.9 |
| 20260507030216 | 48 | 329 | 0.0 | 2.0 | 0.00 | 0.57 | 0.00 | 90 | 1010.8 |
| 20260507025503 | 48 | 337 | 1.0 | 2.0 | 0.00 | 0.57 | 0.00 | 90 | 1010.8 |
| 20260507025216 | 48 | 332 | 1.0 | 2.0 | 0.00 | 0.57 | 0.00 | 90 | 1010.9 |
| 20260507024503 | 48 | 334 | 0.0 | 2.0 | 0.00 | 0.57 | 0.00 | 90 | 1010.8 |
| 20260507024003 | 48 | 320 | 0.0 | 2.0 | 0.00 | 0.57 | 0.00 | 90 | 1010.7 |
| 20260507023503 | 48 | 317 | 0.0 | 1.0 | 0.00 | 0.57 | 0.00 | 91 | 1011.0 |
| 20260507023216 | 48 | 316 | 0.0 | 2.0 | 0.00 | 0.57 | 0.00 | 91 | 1010.8 |
| 20260507022717 | 48 | 318 | 0.0 | 2.0 | 0.00 | 0.57 | 0.00 | 91 | 1010.8 |
| 20260507022003 | 48 | 69 | 0.0 | 2.0 | 0.00 | 0.57 | 0.00 | 91 | 1010.8 |
| 20260507021503 | 48 | 41 | 0.0 | 1.0 | 0.00 | 0.57 | 0.00 | 92 | 1010.8 |
| 20260507021003 | 48 | 79 | 0.0 | 1.0 | 0.00 | 0.57 | 0.00 | 92 | 1010.8 |
| 20260507020503 | 48 | 92 | 0.0 | 1.0 | 0.00 | 0.57 | 0.00 | 92 | 1010.6 |
| 20260507020003 | 48 | 78 | 0.0 | 1.0 | 0.00 | 0.57 | 0.00 | 91 | 1010.7 |
| 20260507015503 | 48 | 330 | 0.0 | 2.0 | 0.00 | 0.57 | 0.00 | 91 | 1010.7 |
| 20260507015218 | 48 | 291 | 0.0 | 2.0 | 0.00 | 0.57 | 0.00 | 91 | 1010.6 |
| 20260507014503 | 48 | 293 | 1.0 | 2.0 | 0.00 | 0.57 | 0.00 | 91 | 1010.4 |
| 20260507014003 | 48 | 304 | 0.0 | 2.0 | 0.00 | 0.57 | 0.00 | 91 | 1010.7 |
| 20260507013503 | 48 | 314 | 0.0 | 2.0 | 0.00 | 0.57 | 0.00 | 91 | 1010.5 |
| 20260507013003 | 49 | 326 | 0.0 | 2.0 | 0.00 | 0.57 | 0.00 | 90 | 1010.5 |
| 20260507012503 | 49 | 309 | 0.0 | 2.0 | 0.00 | 0.57 | 0.00 | 90 | 1010.5 |
| 20260507012003 | 49 | 302 | 0.0 | 2.0 | 0.00 | 0.57 | 0.00 | 90 | 1010.5 |
| 20260507011503 | 49 | 306 | 0.0 | 2.0 | 0.00 | 0.57 | 0.00 | 90 | 1010.4 |
| 20260507011003 | 49 | 297 | 0.0 | 2.0 | 0.00 | 0.57 | 0.00 | 90 | 1010.6 |
| 20260507010503 | 49 | 305 | 1.0 | 2.0 | 0.00 | 0.57 | 0.00 | 90 | 1010.6 |
| 20260507010003 | 49 | 315 | 0.0 | 3.0 | 0.00 | 0.57 | 0.00 | 89 | 1010.4 |
| 20260507005503 | 49 | 307 | 0.0 | 2.0 | 0.00 | 0.57 | 0.00 | 89 | 1010.5 |
| 20260507005003 | 49 | 318 | 0.0 | 2.0 | 0.00 | 0.57 | 0.00 | 88 | 1010.5 |
| 20260507004503 | 49 | 347 | 0.0 | 2.0 | 0.00 | 0.57 | 0.00 | 88 | 1010.4 |
| 20260507004003 | 50 | 349 | 0.0 | 2.0 | 0.00 | 0.57 | 0.00 | 88 | 1010.6 |
| 20260507003503 | 50 | 351 | 1.0 | 2.0 | 0.00 | 0.57 | 0.00 | 88 | 1010.5 |
| 20260507003003 | 50 | 356 | 1.0 | 3.0 | 0.00 | 0.57 | 0.00 | 88 | 1010.4 |
| 20260507002503 | 50 | 348 | 1.0 | 3.0 | 0.00 | 0.57 | 0.00 | 88 | 1010.3 |
| 20260507002003 | 50 | 346 | 1.0 | 2.0 | 0.00 | 0.57 | 0.00 | 88 | 1010.5 |
| 20260507001503 | 50 | 340 | 0.0 | 3.0 | 0.00 | 0.57 | 0.00 | 88 | 1010.5 |
| 20260507001003 | 50 | 314 | 1.0 | 2.0 | 0.00 | 0.57 | 0.00 | 88 | 1010.5 |
| 20260507000503 | 50 | 324 | 1.0 | 2.0 | 0.00 | 0.57 | 0.00 | 88 | 1010.5 |
| 20260507000003 | 50 | 1 | 1.0 | 2.0 | 0.00 | 0.57 | 0.00 | 88 | 1010.5 |
| 20260506235503 | 50 | 10 | 0.0 | 2.0 | 0.00 | 0.57 | 0.00 | 88 | 1010.4 |
| 20260506235003 | 50 | 353 | 0.0 | 2.0 | 0.00 | 0.57 | 0.00 | 88 | 1010.5 |
| 20260506234503 | 50 | 8 | 0.0 | 2.0 | 0.00 | 0.57 | 0.00 | 89 | 1010.4 |
| 20260506234217 | 50 | 3 | 0.0 | 2.0 | 0.00 | 0.57 | 0.00 | 89 | 1010.5 |
| 20260506233718 | 50 | 350 | 0.0 | 2.0 | 0.00 | 0.57 | 0.00 | 88 | 1010.2 |
| 20260506233003 | 50 | 337 | 0.0 | 2.0 | 0.00 | 0.57 | 0.00 | 88 | 1010.3 |
| 20260506232503 | 50 | 345 | 0.0 | 1.0 | 0.00 | 0.57 | 0.00 | 88 | 1010.4 |
| 20260506232003 | 50 | 25 | 1.0 | 3.0 | 0.00 | 0.57 | 0.00 | 88 | 1010.4 |
| 20260506231503 | 50 | 60 | 1.0 | 2.0 | 0.00 | 0.57 | 0.00 | 88 | 1010.3 |
| 20260506231003 | 50 | 50 | 1.0 | 3.0 | 0.00 | 0.57 | 0.00 | 88 | 1010.5 |
| 20260506230503 | 50 | 46 | 1.0 | 3.0 | 0.00 | 0.57 | 0.00 | 88 | 1010.4 |
| 20260506230003 | 50 | 74 | 0.0 | 2.0 | 0.00 | 0.57 | 0.00 | 89 | 1010.2 |
| 20260506225503 | 51 | 63 | 1.0 | 3.0 | 0.00 | 0.57 | 0.00 | 88 | 1010.2 |
| 20260506225003 | 51 | 29 | 1.0 | 2.0 | 0.00 | 0.57 | 0.00 | 87 | 1010.2 |
| 20260506224503 | 51 | 30 | 1.0 | 3.0 | 0.00 | 0.57 | 0.00 | 86 | 1010.3 |
| 20260506224003 | 51 | 53 | 1.0 | 3.0 | 0.00 | 0.57 | 0.00 | 86 | 1010.2 |
| 20260506223503 | 51 | 43 | 2.0 | 4.0 | 0.00 | 0.57 | 0.00 | 86 | 1010.4 |
| 20260506223003 | 51 | 25 | 2.0 | 5.0 | 0.00 | 0.57 | 0.00 | 85 | 1010.2 |
| 20260506222503 | 51 | 33 | 2.0 | 4.0 | 0.00 | 0.57 | 0.00 | 85 | 1009.9 |
| 20260506222217 | 51 | 40 | 1.0 | 5.0 | 0.00 | 0.57 | 0.00 | 86 | 1010.1 |
| 20260506221504 | 51 | 36 | 2.0 | 4.0 | 0.00 | 0.57 | 0.00 | 85 | 1009.8 |
| 20260506221003 | 51 | 32 | 2.0 | 4.0 | 0.00 | 0.57 | 0.00 | 86 | 1010.1 |
| 20260506220503 | 51 | 35 | 2.0 | 6.0 | 0.00 | 0.57 | 0.00 | 85 | 1009.9 |
| 20260506220003 | 52 | 32 | 2.0 | 4.0 | 0.00 | 0.57 | 0.00 | 85 | 1009.9 |
| 20260506215503 | 52 | 41 | 2.0 | 4.0 | 0.00 | 0.57 | 0.57 | 85 | 1010.0 |
| 20260506215003 | 52 | 40 | 2.0 | 5.0 | 0.00 | 0.57 | 0.57 | 85 | 1010.0 |
| 20260506214503 | 52 | 27 | 2.0 | 5.0 | 0.00 | 0.57 | 0.57 | 85 | 1009.8 |
| 20260506214216 | 52 | 22 | 1.0 | 3.0 | 0.00 | 0.57 | 0.57 | 85 | 1009.9 |
| 20260506213503 | 52 | 30 | 2.0 | 5.0 | 0.00 | 0.57 | 0.57 | 85 | 1009.6 |
| 20260506213003 | 52 | 35 | 2.0 | 4.0 | 0.00 | 0.57 | 0.57 | 84 | 1009.9 |
| 20260506212503 | 52 | 34 | 2.0 | 5.0 | 0.00 | 0.57 | 0.57 | 85 | 1009.8 |
| 20260506212216 | 52 | 44 | 2.0 | 5.0 | 0.00 | 0.57 | 0.57 | 86 | 1009.8 |
| 20260506211717 | 52 | 48 | 2.0 | 3.0 | 0.00 | 0.57 | 0.57 | 87 | 1009.8 |
| 20260506211003 | 52 | 38 | 2.0 | 4.0 | 0.00 | 0.57 | 0.57 | 87 | 1009.5 |
| 20260506210503 | 52 | 31 | 2.0 | 5.0 | 0.00 | 0.57 | 0.57 | 88 | 1009.5 |
| 20260506210003 | 52 | 18 | 2.0 | 9.0 | 0.00 | 0.57 | 0.57 | 88 | 1009.4 |
| 20260506205503 | 52 | 31 | 2.0 | 3.0 | 0.00 | 0.57 | 0.57 | 89 | 1009.4 |
| 20260506205003 | 52 | 39 | 1.0 | 5.0 | 0.00 | 0.57 | 0.57 | 89 | 1009.3 |
| 20260506204503 | 52 | 42 | 1.0 | 5.0 | 0.00 | 0.57 | 0.57 | 89 | 1009.4 |
| 20260506204003 | 52 | 42 | 2.0 | 5.0 | 0.00 | 0.57 | 0.57 | 89 | 1009.2 |
| 20260506203503 | 52 | 30 | 1.0 | 4.0 | 0.00 | 0.57 | 0.57 | 89 | 1009.3 |
| 20260506203003 | 52 | 33 | 1.0 | 4.0 | 0.00 | 0.57 | 0.57 | 90 | 1009.3 |
| 20260506202503 | 52 | 44 | 2.0 | 5.0 | 0.00 | 0.57 | 0.57 | 90 | 1009.2 |
| 20260506202003 | 52 | 37 | 1.0 | 3.0 | 0.00 | 0.57 | 0.57 | 90 | 1009.0 |
| 20260506201503 | 52 | 28 | 1.0 | 3.0 | 0.00 | 0.57 | 0.57 | 90 | 1009.0 |
| 20260506201003 | 52 | 31 | 2.0 | 6.0 | 0.00 | 0.57 | 0.57 | 90 | 1009.1 |
| 20260506200503 | 52 | 44 | 1.0 | 4.0 | 0.00 | 0.57 | 0.57 | 89 | 1009.0 |
| 20260506200003 | 52 | 50 | 2.0 | 3.0 | 0.00 | 0.57 | 0.57 | 89 | 1009.0 |
| 20260506195503 | 52 | 50 | 3.0 | 6.0 | 0.00 | 0.57 | 0.57 | 88 | 1009.2 |
| 20260506195218 | 52 | 51 | 3.0 | 6.0 | 0.00 | 0.57 | 0.57 | 88 | 1009.0 |
| 20260506194503 | 53 | 49 | 2.0 | 6.0 | 0.00 | 0.57 | 0.57 | 87 | 1008.9 |
| 20260506194003 | 53 | 68 | 3.0 | 5.0 | 0.00 | 0.57 | 0.57 | 87 | 1009.0 |
| 20260506193503 | 53 | 75 | 2.0 | 6.0 | 0.00 | 0.57 | 0.57 | 87 | 1009.0 |
| 20260506193003 | 54 | 72 | 2.0 | 5.0 | 0.00 | 0.57 | 0.57 | 89 | 1009.2 |
| 20260506192503 | 54 | 63 | 1.0 | 4.0 | 0.00 | 0.57 | 0.57 | 89 | 1008.7 |
| 20260506192003 | 54 | 56 | 1.0 | 2.0 | 0.00 | 0.57 | 0.57 | 89 | 1008.8 |
| 20260506191503 | 54 | 57 | 1.0 | 4.0 | 0.00 | 0.57 | 0.57 | 88 | 1008.7 |
| 20260506191003 | 54 | 53 | 2.0 | 4.0 | 0.00 | 0.57 | 0.57 | 88 | 1008.7 |
| 20260506190503 | 54 | 54 | 2.0 | 7.0 | 0.00 | 0.57 | 0.57 | 88 | 1008.6 |
| 20260506190003 | 54 | 54 | 2.0 | 5.0 | 0.00 | 0.57 | 0.57 | 88 | 1008.6 |
| 20260506185716 | 54 | 55 | 2.0 | 5.0 | 0.00 | 0.57 | 0.57 | 89 | 1008.5 |
| 20260506185003 | 54 | 64 | 2.0 | 5.0 | 0.00 | 0.57 | 0.57 | 89 | 1008.4 |
| 20260506184503 | 54 | 70 | 1.0 | 3.0 | 0.00 | 0.57 | 0.57 | 89 | 1008.3 |
| 20260506184003 | 54 | 63 | 1.0 | 3.0 | 0.00 | 0.57 | 0.57 | 89 | 1008.0 |
| 20260506183716 | 54 | 52 | 1.0 | 3.0 | 0.00 | 0.57 | 0.57 | 89 | 1008.0 |
| 20260506183003 | 54 | 358 | 1.0 | 2.0 | 0.00 | 0.57 | 0.57 | 90 | 1008.1 |
| 20260506182503 | 54 | 356 | 1.0 | 3.0 | 0.00 | 0.57 | 0.57 | 91 | 1007.9 |
| 20260506182003 | 54 | 6 | 1.0 | 3.0 | 0.00 | 0.57 | 0.57 | 91 | 1007.5 |
| 20260506181503 | 54 | 10 | 1.0 | 3.0 | 0.00 | 0.57 | 0.57 | 91 | 1007.7 |
| 20260506181003 | 54 | 6 | 1.0 | 2.0 | 0.01 | 0.57 | 0.57 | 91 | 1007.6 |
| 20260506180503 | 54 | 11 | 1.0 | 2.0 | 0.07 | 0.57 | 0.57 | 91 | 1007.3 |
| 20260506180217 | 54 | 17 | 1.0 | 2.0 | 0.12 | 0.57 | 0.57 | 91 | 1007.4 |
| 20260506175503 | 54 | 28 | 1.0 | 3.0 | 0.37 | 0.57 | 0.57 | 91 | 1007.5 |
| 20260506175217 | 54 | 19 | 1.0 | 6.0 | 0.48 | 0.57 | 0.57 | 91 | 1007.3 |
| 20260506174503 | 54 | 7 | 1.0 | 2.0 | 0.57 | 0.57 | 0.57 | 92 | 1007.4 |
| 20260506174217 | 54 | 355 | 1.0 | 2.0 | 0.57 | 0.57 | 0.57 | 92 | 1006.9 |
| 20260506173503 | 53 | 328 | 1.0 | 4.0 | 0.57 | 0.57 | 0.57 | 92 | 1006.6 |
| 20260506173003 | 53 | 329 | 1.0 | 3.0 | 0.57 | 0.57 | 0.57 | 91 | 1006.6 |
| 20260506172718 | 53 | 322 | 2.0 | 3.0 | 0.57 | 0.57 | 0.57 | 91 | 1006.7 |
| 20260506172003 | 53 | 327 | 2.0 | 6.0 | 0.57 | 0.57 | 0.57 | 90 | 1006.3 |
| 20260506171503 | 53 | 328 | 2.0 | 3.0 | 0.57 | 0.57 | 0.57 | 89 | 1006.3 |
| 20260506171003 | 52 | 334 | 3.0 | 6.0 | 0.56 | 0.56 | 0.56 | 88 | 1006.1 |
| 20260506170503 | 53 | 1 | 3.0 | 5.0 | 0.50 | 0.50 | 0.50 | 85 | 1006.2 |
| 20260506170003 | 53 | 15 | 3.0 | 12.0 | 0.40 | 0.40 | 0.40 | 83 | 1006.5 |
| 20260506165503 | 54 | 55 | 3.0 | 9.0 | 0.20 | 0.20 | 0.20 | 81 | 1006.4 |
| 20260506165003 | 58 | 63 | 4.0 | 10.0 | 0.03 | 0.03 | 0.04 | 69 | 1006.5 |
| 20260506164718 | 60 | 48 | 3.0 | 11.0 | 0.00 | 0.00 | 0.00 | 60 | 1006.5 |
| 20260506164003 | 63 | 328 | 2.0 | 7.0 | 0.00 | 0.00 | 0.00 | 60 | 1005.4 |
| 20260506163717 | 63 | 329 | 2.0 | 6.0 | 0.00 | 0.00 | 0.00 | 57 | 1005.3 |
| 20260506163003 | 64 | 333 | 2.0 | 5.0 | 0.00 | 0.00 | 0.00 | 57 | 1005.2 |
| 20260506162503 | 65 | 345 | 2.0 | 6.0 | 0.00 | 0.00 | 0.00 | 56 | 1005.1 |
| 20260506162003 | 66 | 4 | 1.0 | 3.0 | 0.00 | 0.00 | 0.00 | 56 | 1005.1 |
| 20260506161503 | 66 | 352 | 2.0 | 5.0 | 0.00 | 0.00 | 0.00 | 55 | 1004.9 |
| 20260506161003 | 67 | 360 | 1.0 | 5.0 | 0.00 | 0.00 | 0.00 | 52 | 1004.9 |
| 20260506160503 | 69 | 48 | 1.0 | 2.0 | 0.00 | 0.00 | 0.00 | 44 | 1004.9 |
| 20260506160003 | 69 | 64 | 1.0 | 3.0 | 0.00 | 0.00 | 0.00 | 43 | 1004.9 |
| 20260506155503 | 71 | 68 | 1.0 | 5.0 | 0.00 | 0.00 | 0.00 | 41 | 1004.7 |
| 20260506155003 | 72 | 13 | 1.0 | 3.0 | 0.00 | 0.00 | 0.00 | 39 | 1004.7 |
| 20260506154503 | 69 | 329 | 1.0 | 2.0 | 0.00 | 0.00 | 0.00 | 41 | 1004.3 |
| 20260506154003 | 67 | 49 | 1.0 | 2.0 | 0.00 | 0.00 | 0.00 | 43 | 1004.3 |
| 20260506153503 | 66 | 47 | 2.0 | 4.0 | 0.00 | 0.00 | 0.00 | 45 | 1004.1 |
| 20260506153003 | 67 | 51 | 2.0 | 3.0 | 0.00 | 0.00 | 0.00 | 44 | 1004.9 |
| 20260506152503 | 68 | 64 | 1.0 | 4.0 | 0.00 | 0.00 | 0.00 | 43 | 1004.9 |
| 20260506152218 | 69 | 70 | 1.0 | 4.0 | 0.00 | 0.00 | 0.00 | 42 | 1005.0 |
| 20260506151503 | 67 | 54 | 1.0 | 3.0 | 0.00 | 0.00 | 0.00 | 44 | 1004.8 |
| 20260506151003 | 67 | 50 | 1.0 | 4.0 | 0.00 | 0.00 | 0.00 | 44 | 1004.9 |
| 20260506150503 | 67 | 70 | 1.0 | 3.0 | 0.00 | 0.00 | 0.00 | 44 | 1005.0 |
| 20260506150003 | 67 | 72 | 1.0 | 2.0 | 0.00 | 0.00 | 0.00 | 44 | 1004.8 |
| 20260506145503 | 67 | 64 | 1.0 | 2.0 | 0.00 | 0.00 | 0.00 | 44 | 1004.8 |
| 20260506145003 | 67 | 52 | 1.0 | 2.0 | 0.00 | 0.00 | 0.00 | 44 | 1005.0 |
| 20260506144503 | 67 | 74 | 1.0 | 2.0 | 0.00 | 0.00 | 0.00 | 45 | 1005.1 |
| 20260506144003 | 67 | 75 | 1.0 | 3.0 | 0.00 | 0.00 | 0.00 | 44 | 1004.8 |
| 20260506143503 | 67 | 72 | 1.0 | 2.0 | 0.00 | 0.00 | 0.00 | 44 | 1004.9 |
| 20260506143003 | 68 | 66 | 1.0 | 3.0 | 0.00 | 0.00 | 0.00 | 43 | 1004.9 |
| 20260506142717 | 68 | 56 | 0.0 | 3.0 | 0.00 | 0.00 | 0.00 | 43 | 1005.2 |
| 20260506142003 | 68 | 68 | 1.0 | 2.0 | 0.00 | 0.00 | 0.00 | 44 | 1005.0 |
| 20260506141503 | 67 | 67 | 1.0 | 3.0 | 0.00 | 0.00 | 0.00 | 44 | 1004.9 |
| 20260506141003 | 67 | 69 | 2.0 | 3.0 | 0.00 | 0.00 | 0.00 | 44 | 1005.2 |
| 20260506140717 | 68 | 66 | 1.0 | 3.0 | 0.00 | 0.00 | 0.00 | 44 | 1005.1 |
| 20260506140003 | 67 | 78 | 2.0 | 3.0 | 0.00 | 0.00 | 0.00 | 43 | 1005.0 |
| 20260506135503 | 67 | 86 | 2.0 | 4.0 | 0.00 | 0.00 | 0.00 | 44 | 1005.3 |
| 20260506135003 | 68 | 108 | 1.0 | 4.0 | 0.00 | 0.00 | 0.00 | 44 | 1005.1 |
| 20260506134503 | 68 | 126 | 1.0 | 3.0 | 0.00 | 0.00 | 0.00 | 43 | 1005.1 |
| 20260506134003 | 69 | 95 | 1.0 | 2.0 | 0.00 | 0.00 | 0.00 | 40 | 1005.1 |
| 20260506133716 | 69 | 84 | 1.0 | 2.0 | 0.00 | 0.00 | 0.00 | 42 | 1005.0 |
| 20260506133003 | 69 | 127 | 2.0 | 4.0 | 0.00 | 0.00 | 0.00 | 42 | 1005.2 |
| 20260506132503 | 69 | 126 | 1.0 | 4.0 | 0.00 | 0.00 | 0.00 | 44 | 1005.2 |
| 20260506132003 | 68 | 110 | 1.0 | 4.0 | 0.00 | 0.00 | 0.00 | 44 | 1005.2 |
| 20260506131503 | 68 | 87 | 2.0 | 4.0 | 0.00 | 0.00 | 0.00 | 44 | 1005.2 |
| 20260506131003 | 69 | 76 | 1.0 | 5.0 | 0.00 | 0.00 | 0.00 | 44 | 1005.3 |
| 20260506130503 | 67 | 68 | 1.0 | 3.0 | 0.00 | 0.00 | 0.00 | 47 | 1005.3 |
| 20260506130003 | 67 | 75 | 2.0 | 4.0 | 0.00 | 0.00 | 0.00 | 47 | 1005.4 |
| 20260506125503 | 67 | 76 | 2.0 | 6.0 | 0.00 | 0.00 | 0.00 | 47 | 1005.2 |
| 20260506125217 | 68 | 80 | 2.0 | 5.0 | 0.00 | 0.00 | 0.00 | 48 | 1005.4 |
| 20260506124503 | 68 | 92 | 2.0 | 3.0 | 0.00 | 0.00 | 0.00 | 48 | 1005.4 |
| 20260506124003 | 67 | 99 | 2.0 | 5.0 | 0.00 | 0.00 | 0.00 | 49 | 1005.4 |
| 20260506123718 | 68 | 87 | 1.0 | 5.0 | 0.00 | 0.00 | 0.00 | 48 | 1005.6 |
| 20260506123003 | 66 | 98 | 1.0 | 5.0 | 0.00 | 0.00 | 0.00 | 51 | 1005.5 |
| 20260506122503 | 66 | 126 | 1.0 | 4.0 | 0.00 | 0.00 | 0.00 | 52 | 1005.6 |
| 20260506122217 | 66 | 93 | 1.0 | 3.0 | 0.00 | 0.00 | 0.00 | 52 | 1005.8 |
| 20260506121503 | 65 | 105 | 1.0 | 4.0 | 0.00 | 0.00 | 0.00 | 52 | 1005.8 |
| 20260506121003 | 65 | 124 | 1.0 | 4.0 | 0.00 | 0.00 | 0.00 | 52 | 1005.6 |
| 20260506120503 | 66 | 137 | 1.0 | 4.0 | 0.00 | 0.00 | 0.00 | 51 | 1005.6 |
| 20260506120003 | 65 | 143 | 1.0 | 4.0 | 0.00 | 0.00 | 0.00 | 53 | 1005.6 |
| 20260506115503 | 64 | 98 | 1.0 | 2.0 | 0.00 | 0.00 | 0.00 | 53 | 1005.5 |
| 20260506115217 | 64 | 94 | 1.0 | 2.0 | 0.00 | 0.00 | 0.00 | 54 | 1005.7 |
| 20260506114503 | 66 | 119 | 1.0 | 2.0 | 0.00 | 0.00 | 0.00 | 52 | 1005.6 |
| 20260506114003 | 66 | 105 | 1.0 | 4.0 | 0.00 | 0.00 | 0.00 | 51 | 1005.9 |
| 20260506113503 | 66 | 97 | 1.0 | 4.0 | 0.00 | 0.00 | 0.00 | 50 | 1006.0 |
| 20260506113003 | 66 | 87 | 1.0 | 5.0 | 0.00 | 0.00 | 0.00 | 50 | 1006.1 |
| 20260506112718 | 67 | 79 | 1.0 | 4.0 | 0.00 | 0.00 | 0.00 | 50 | 1006.1 |
| 20260506112003 | 64 | 90 | 1.0 | 3.0 | 0.00 | 0.00 | 0.00 | 53 | 1006.3 |
| 20260506111503 | 64 | 154 | 1.0 | 3.0 | 0.00 | 0.00 | 0.00 | 54 | 1006.2 |
| 20260506111003 | 65 | 203 | 1.0 | 4.0 | 0.00 | 0.00 | 0.00 | 53 | 1006.2 |
| 20260506110717 | 65 | 249 | 1.0 | 2.0 | 0.00 | 0.00 | 0.00 | 53 | 1006.3 |
| 20260506110003 | 65 | 246 | 1.0 | 3.0 | 0.00 | 0.00 | 0.00 | 53 | 1006.3 |
| 20260506105717 | 64 | 255 | 1.0 | 2.0 | 0.00 | 0.00 | 0.00 | 55 | 1006.3 |
| 20260506105216 | 64 | 295 | 1.0 | 4.0 | 0.00 | 0.00 | 0.00 | 57 | 1006.5 |
| 20260506104503 | 65 | 13 | 1.0 | 5.0 | 0.00 | 0.00 | 0.00 | 58 | 1006.4 |
| 20260506104003 | 64 | 24 | 1.0 | 2.0 | 0.00 | 0.00 | 0.00 | 55 | 1006.5 |
| 20260506103717 | 64 | 38 | 1.0 | 2.0 | 0.00 | 0.00 | 0.00 | 55 | 1006.3 |
| 20260506103003 | 66 | 47 | 1.0 | 4.0 | 0.00 | 0.00 | 0.00 | 54 | 1006.7 |
| 20260506102503 | 64 | 23 | 1.0 | 3.0 | 0.00 | 0.00 | 0.00 | 54 | 1006.5 |
| 20260506102003 | 64 | 23 | 2.0 | 5.0 | 0.00 | 0.00 | 0.00 | 56 | 1006.6 |
| 20260506101503 | 65 | 16 | 1.0 | 4.0 | 0.00 | 0.00 | 0.00 | 55 | 1006.6 |
| 20260506101003 | 65 | 352 | 1.0 | 2.0 | 0.00 | 0.00 | 0.00 | 53 | 1006.7 |
| 20260506100503 | 64 | 8 | 1.0 | 3.0 | 0.00 | 0.00 | 0.00 | 55 | 1006.7 |
| 20260506100003 | 64 | 27 | 1.0 | 4.0 | 0.00 | 0.00 | 0.00 | 55 | 1006.9 |
| 20260506095503 | 63 | 349 | 1.0 | 2.0 | 0.00 | 0.00 | 0.00 | 56 | 1006.8 |
| 20260506095003 | 62 | 322 | 1.0 | 2.0 | 0.00 | 0.00 | 0.00 | 57 | 1007.0 |
| 20260506094503 | 62 | 335 | 1.0 | 2.0 | 0.00 | 0.00 | 0.00 | 59 | 1006.7 |
| 20260506094218 | 62 | 341 | 1.0 | 3.0 | 0.00 | 0.00 | 0.00 | 59 | 1006.8 |
| 20260506093503 | 61 | 322 | 2.0 | 3.0 | 0.00 | 0.00 | 0.00 | 60 | 1006.9 |
| 20260506093003 | 61 | 336 | 1.0 | 4.0 | 0.00 | 0.00 | 0.00 | 58 | 1006.9 |
| 20260506092717 | 62 | 335 | 1.0 | 4.0 | 0.00 | 0.00 | 0.00 | 59 | 1007.0 |
| 20260506092003 | 61 | 314 | 1.0 | 3.0 | 0.00 | 0.00 | 0.00 | 60 | 1007.0 |
| 20260506091503 | 61 | 323 | 1.0 | 4.0 | 0.00 | 0.00 | 0.00 | 62 | 1007.2 |
| 20260506091003 | 61 | 328 | 1.0 | 4.0 | 0.00 | 0.00 | 0.00 | 64 | 1006.9 |
| 20260506090717 | 62 | 349 | 0.0 | 3.0 | 0.00 | 0.00 | 0.00 | 62 | 1006.8 |
| 20260506090003 | 60 | 37 | 1.0 | 2.0 | 0.00 | 0.00 | 0.00 | 67 | 1007.0 |
| 20260506085503 | 60 | 38 | 1.0 | 3.0 | 0.00 | 0.00 | 0.00 | 65 | 1006.8 |
| 20260506085003 | 59 | 327 | 0.0 | 2.0 | 0.00 | 0.00 | 0.00 | 67 | 1006.8 |
| 20260506084503 | 59 | 32 | 1.0 | 2.0 | 0.00 | 0.00 | 0.00 | 68 | 1006.8 |
| 20260506084003 | 58 | 34 | 1.0 | 2.0 | 0.00 | 0.00 | 0.00 | 69 | 1006.9 |